GW4436 Weather Reports


Display with metric or nautical units.
time (UTC)temp
F
wind
direction
speed
MPH
gust
MPH
rain 1hr
in
rain 24hr
in
rain mn
in
humidity
%
barometer
mb
20260904051511 77 165 0.0 2.0 0.00 0.03 0.00 95 1016.6
20260904050018 77 123 0.0 2.0 0.00 0.03 0.00 95 1016.7
20260904044532 77 196 1.0 2.0 0.00 0.03 0.00 95 1016.6
20260904043006 77 174 0.0 2.0 0.00 0.03 0.00 95 1016.5
20260904041511 77 166 0.0 2.0 0.00 0.03 0.00 94 1016.6
20260904040014 77 194 0.0 2.0 0.00 0.03 0.00 94 1016.6
20260904034523 77 194 0.0 2.0 0.00 0.03 0.03 94 1016.8
20260904033031 78 194 0.0 2.0 0.00 0.03 0.03 94 1016.6
20260904031506 78 194 1.0 2.0 0.00 0.03 0.03 94 1016.6
20260904030014 78 20 1.0 2.0 0.00 0.03 0.03 93 1016.3
20260904024524 78 80 0.0 2.0 0.00 0.03 0.03 93 1016.5
20260904023027 79 63 0.0 2.0 0.00 0.03 0.03 92 1016.3
20260904021538 79 89 0.0 2.0 0.00 0.03 0.03 92 1016.4
20260904020009 79 72 1.0 3.0 0.00 0.03 0.03 91 1016.6
20260904014502 79 86 1.0 2.0 0.00 0.03 0.03 90 1016.5
20260904013003 80 83 0.0 2.0 0.00 0.03 0.03 90 1016.3
20260904011504 80 37 1.0 2.0 0.00 0.03 0.03 89 1016.2
20260904010032 80 70 0.0 2.0 0.00 0.03 0.03 89 1016.4
20260904004532 80 96 2.0 3.0 0.00 0.03 0.03 89 1016.2
20260904003035 81 62 2.0 5.0 0.00 0.03 0.03 88 1016.1
20260904001528 82 60 3.0 5.0 0.00 0.03 0.03 87 1016.1
20260904000006 82 94 1.0 3.0 0.00 0.03 0.03 86 1016.0
20260903234512 83 98 1.0 4.0 0.00 0.03 0.03 84 1015.9
20260903233032 83 70 2.0 6.0 0.00 0.03 0.03 82 1015.7
20260903231540 84 82 2.0 6.0 0.00 0.03 0.03 81 1015.9
20260903230035 85 123 4.0 8.0 0.00 0.03 0.03 79 1015.6
20260903224514 85 23 4.0 7.0 0.00 0.03 0.03 79 1015.3
20260903223018 85 77 3.0 7.0 0.00 0.03 0.03 78 1015.4
20260903221527 86 101 4.0 7.0 0.00 0.03 0.03 78 1015.1
20260903220006 86 96 3.0 11.0 0.00 0.03 0.03 75 1015.3
20260903214534 86 90 6.0 9.0 0.00 0.03 0.03 79 1015.3
20260903213017 86 85 4.0 7.0 0.00 0.03 0.03 78 1015.3
20260903211543 86 56 4.0 9.0 0.00 0.03 0.03 78 1015.3
20260903210007 86 137 4.0 11.0 0.00 0.03 0.03 77 1015.3
20260903204508 85 103 5.0 13.0 0.00 0.03 0.03 78 1015.5
20260903203015 85 79 6.0 10.0 0.00 0.03 0.03 80 1015.7
20260903201535 84 115 5.0 11.0 0.01 0.03 0.03 85 1015.8
20260903200005 82 97 3.0 8.0 0.02 0.03 0.03 90 1016.1
20260903194536 81 128 4.0 7.0 0.02 0.03 0.03 90 1016.3
20260903193016 81 81 3.0 5.0 0.02 0.03 0.03 89 1016.3
20260903191510 84 115 6.0 17.0 0.01 0.02 0.02 83 1016.4
20260903190006 85 165 2.0 8.0 0.00 0.01 0.01 81 1016.1
20260903184534 86 208 4.0 8.0 0.00 0.01 0.01 81 1016.4
20260903183031 85 132 3.0 13.0 0.00 0.01 0.01 81 1016.4
20260903181503 84 76 1.0 10.0 0.00 0.01 0.01 85 1016.5
20260903180024 83 113 1.0 10.0 0.01 0.01 0.01 86 1016.9
20260903174514 83 149 3.0 8.0 0.01 0.01 0.01 85 1016.8
20260903173011 85 131 5.0 12.0 0.01 0.01 0.01 84 1016.9
20260903171532 84 124 3.0 14.0 0.01 0.01 0.01 81 1017.4
20260903163008 87 23 6.0 12.0 0.00 0.00 0.00 76 1017.6
20260903161513 86 51 3.0 11.0 0.00 0.00 0.00 81 1017.6
20260903160020 85 41 5.0 10.0 0.00 0.00 0.00 85 1017.9
20260903154527 84 87 2.0 8.0 0.00 0.01 0.00 86 1017.9
20260903153003 86 16 7.0 11.0 0.00 0.01 0.00 80 1017.7
20260903151538 85 92 4.0 8.0 0.00 0.01 0.00 81 1017.7
20260903150029 82 85 1.0 5.0 0.00 0.01 0.00 85 1017.7
20260903144526 83 35 6.0 14.0 0.00 0.01 0.00 84 1017.7
20260903143035 84 41 7.0 13.0 0.00 0.01 0.00 83 1017.6
20260903141514 84 81 4.0 9.0 0.00 0.01 0.00 84 1017.5
20260903140036 83 82 5.0 7.0 0.00 0.01 0.00 87 1017.6
20260903134525 82 67 2.0 7.0 0.00 0.01 0.00 90 1017.5
20260903131536 80 50 3.0 7.0 0.00 0.01 0.00 96 1017.5
20260903130020 79 37 3.0 5.0 0.00 0.01 0.00 97 1017.5
20260903124520 78 3 2.0 4.0 0.00 0.01 0.00 97 1017.5
20260903123030 77 30 3.0 5.0 0.00 0.01 0.00 97 1017.6
20260903121535 77 32 2.0 3.0 0.00 0.01 0.00 97 1017.6
20260903120015 76 19 1.0 2.0 0.00 0.01 0.00 97 1017.7
20260903114520 76 8 1.0 3.0 0.00 0.01 0.00 97 1017.3
20260903113027 76 4 2.0 3.0 0.00 0.01 0.00 97 1017.0
20260903111531 76 326 0.0 2.0 0.00 0.01 0.00 97 1016.7
20260903110009 76 1 1.0 1.0 0.00 0.01 0.00 97 1016.5
20260903104503 76 1 1.0 2.0 0.00 0.01 0.00 97 1016.3
20260903103003 76 1 0.0 2.0 0.00 0.01 0.00 97 1016.2
20260903101510 75 359 2.0 3.0 0.00 0.01 0.00 96 1016.0
20260903100009 76 359 1.0 4.0 0.00 0.01 0.00 97 1015.9
20260903094514 76 25 1.0 2.0 0.00 0.01 0.00 96 1016.0
20260903093003 76 6 2.0 3.0 0.00 0.01 0.00 96 1016.2
20260903091505 76 4 1.0 3.0 0.00 0.01 0.00 96 1016.0
20260903090010 76 356 2.0 3.0 0.00 0.01 0.00 96 1016.0
20260903084526 76 357 1.0 2.0 0.00 0.01 0.00 96 1015.9
20260903083024 76 9 2.0 2.0 0.00 0.01 0.00 96 1016.0
20260903081505 76 9 1.0 2.0 0.00 0.01 0.00 96 1015.9
20260903080011 76 18 1.0 3.0 0.00 0.01 0.00 96 1016.0
20260903074509 76 5 1.0 3.0 0.00 0.01 0.00 96 1016.2
20260903073022 77 13 1.0 2.0 0.00 0.01 0.00 96 1016.2
20260903071524 77 13 0.0 2.0 0.00 0.01 0.00 96 1016.3
20260903070005 77 13 1.0 3.0 0.00 0.01 0.00 96 1016.5
20260903064508 77 13 0.0 2.0 0.00 0.01 0.00 95 1016.6
20260903063019 77 13 1.0 2.0 0.00 0.01 0.00 95 1016.8
20260903061524 77 13 0.0 2.0 0.00 0.01 0.00 95 1016.8
20260903060031 77 13 0.0 2.0 0.00 0.01 0.00 95 1017.1
20260903054512 77 13 0.0 2.0 0.00 0.01 0.00 95 1017.2
20260903053016 77 56 0.0 2.0 0.00 0.01 0.00 95 1017.2